Theta_e
291 292 291 293 292 291 289 289 288 288 289 289 287 285 289 287 282 281 282 287 287 289 292 295 295 296 296 297 297 299 300 300 299 298 299 300 300 300 301 300 301 302 302 303 305 306 304 304 305 306 307 306 306 305 306 306 307 307 309 307 307 307 307 308 309 310 311 311 311 313 313 312 312 311 311 311 312 312 312 313 314 313 313 314 313 314 316
288 290 291 294 292 291 291 290 290 290 290 289 289 288 289 289 286 287 287 289 290 292 292 295 296 297 298 298 299 299 299 299 299 299 299 299 300 300 300 300 300 300 300 301 302 304 304 304 304 305 304 304 303 303 305 303 303 305 306 305 305 305 304 304 306 308 309 310 310 310 310 310 309 309 309 310 309 309 309 310 310 311 310 311 311 311 313
285 289 291 293 292 292 288 291 291 290 289 290 290 289 289 290 288 289 289 288 289 291 293 296 296 297 298 298 298 299 300 300 300 299 299 299 299 300 301 301 300 301 301 301 301 302 303 304 304 304 303 302 302 302 303 303 303 304 304 303 303 304 304 304 306 308 308 308 309 309 309 309 308 308 307 307 307 307 307 307 308 309 308 308 308 309 310
282 286 290 291 292 291 289 288 290 290 288 286 287 287 289 287 287 287 287 285 286 290 295 296 297 297 298 297 298 299 299 300 300 299 299 299 299 300 301 301 301 301 302 300 300 301 303 303 303 303 303 303 302 302 302 302 303 304 303 302 302 303 304 305 306 306 306 307 308 308 308 307 307 306 306 306 305 305 305 305 306 306 306 307 307 308 308
278 284 290 289 287 286 283 284 289 291 290 289 287 290 291 292 289 283 280 283 289 293 296 295 295 297 297 298 298 299 299 300 300 300 300 300 301 301 301 301 301 301 302 300 299 301 301 301 302 303 304 303 302 303 301 302 303 303 302 301 302 302 303 305 305 305 306 306 307 307 306 306 306 305 305 305 304 304 304 305 304 305 305 305 306 306 307
278 286 287 286 282 275 278 288 292 294 291 290 288 287 289 291 290 285 288 289 291 294 295 296 295 296 297 299 300 302 301 300 300 300 301 300 301 300 301 301 302 302 300 299 300 299 300 301 303 304 304 302 302 304 305 303 301 300 301 300 301 301 303 304 305 305 306 306 306 305 306 305 305 304 304 303 303 303 304 304 303 303 304 304 305 305 306
280 282 283 279 274 275 285 290 293 295 295 293 290 289 291 291 292 293 292 293 295 297 298 298 298 299 300 301 301 301 302 302 301 300 300 299 299 299 300 300 301 300 299 300 300 301 301 302 302 301 301 301 301 302 302 301 301 301 300 299 300 301 302 303 304 305 305 305 304 304 304 304 304 303 303 302 302 303 302 302 302 302 303 303 304 305 304
279 280 276 274 272 283 291 292 293 295 293 291 290 288 288 291 293 293 292 294 296 297 297 298 298 299 300 300 301 302 302 302 301 300 298 298 299 299 300 300 300 300 300 299 300 301 304 303 303 300 299 300 301 301 302 301 300 300 300 299 299 300 301 302 303 304 304 303 303 303 303 303 303 302 302 301 300 302 302 300 301 302 303 303 302 303 304
280 276 276 280 284 286 289 289 290 290 288 287 286 281 283 288 291 293 292 294 295 296 297 297 297 298 298 296 297 301 302 302 302 301 298 298 298 299 300 301 301 302 301 300 300 302 301 302 301 300 299 301 300 300 300 300 299 299 299 298 298 300 300 303 303 304 304 303 303 302 302 302 300 300 300 301 300 301 300 300 301 301 301 302 303 303 305
282 282 277 277 275 274 280 289 292 295 293 291 290 288 282 287 291 294 292 292 294 295 296 296 295 296 294 290 294 300 301 302 302 300 300 300 301 301 302 302 302 302 301 300 303 300 299 299 299 299 299 300 299 299 299 298 297 297 298 297 299 299 299 302 303 303 304 303 302 302 301 300 299 299 299 300 300 303 299 299 299 300 302 303 303 305 303
282 281 278 275 274 276 281 288 293 295 295 294 289 285 280 286 290 292 293 293 294 295 295 294 294 293 289 290 295 299 300 300 301 300 301 302 302 302 302 302 302 302 301 301 302 300 299 300 299 299 299 299 299 299 299 297 297 296 296 297 297 298 300 302 302 303 303 303 301 300 300 299 300 299 298 299 301 301 299 300 300 300 303 301 301 302 302
281 279 279 277 277 279 287 291 292 294 295 293 288 279 276 286 291 292 293 294 294 294 296 294 294 292 288 288 293 295 299 300 300 301 301 301 301 301 302 302 302 301 302 303 299 299 299 300 301 298 298 299 300 299 298 296 296 295 296 298 297 298 301 302 302 303 304 304 301 300 299 298 299 298 300 300 298 297 298 299 299 299 299 299 299 301 302
283 282 278 277 280 284 289 293 296 294 295 290 279 275 283 289 290 293 293 295 296 295 294 294 292 293 294 295 295 297 300 299 299 301 302 301 301 300 300 300 302 301 301 301 300 299 299 299 301 300 299 301 300 300 297 296 296 296 297 297 297 299 299 301 302 302 302 302 301 300 300 300 299 301 299 297 297 297 297 298 297 297 297 297 299 301 303
283 280 281 282 282 287 293 294 296 295 292 281 277 283 290 294 292 293 294 294 294 295 295 293 293 294 294 297 298 299 299 300 300 301 300 299 299 299 300 301 300 300 299 299 298 298 299 300 301 299 300 301 299 298 297 296 296 297 297 297 297 296 296 298 299 301 301 302 302 303 301 301 300 299 298 298 297 297 295 295 296 296 297 299 299 300 301
281 279 280 279 278 285 297 295 293 293 285 283 286 291 296 296 295 294 293 293 295 296 294 294 295 295 296 297 298 298 298 299 298 298 297 298 297 297 297 298 299 299 297 296 297 298 298 299 300 300 300 299 298 298 296 296 297 296 296 298 297 297 297 298 301 300 302 302 302 304 302 300 298 298 297 298 299 297 294 294 293 294 295 296 298 298 298
281 280 279 281 287 286 296 296 288 289 291 290 293 295 294 296 295 293 293 293 295 297 297 296 295 297 297 295 296 296 297 298 296 297 297 296 296 296 298 299 298 299 297 295 295 297 300 300 299 299 299 298 297 296 295 296 295 296 297 296 296 296 297 298 298 301 303 303 302 301 300 299 299 298 297 297 298 296 294 295 293 294 293 295 295 295 295
286 283 285 289 289 292 296 296 294 294 297 296 298 296 295 296 296 295 294 294 296 298 298 298 297 296 297 297 297 297 297 296 296 296 295 296 296 296 296 296 297 297 296 296 298 297 299 299 298 299 299 298 297 295 295 295 295 297 297 296 296 296 296 297 297 300 300 299 300 300 299 299 299 298 297 296 296 295 295 294 294 294 292 294 293 293 293
292 292 293 295 294 296 298 298 297 297 297 299 298 298 295 296 297 296 295 296 298 298 299 298 297 299 297 296 296 296 297 296 296 297 296 296 296 297 297 296 296 297 296 297 297 298 297 297 298 300 298 298 297 296 296 296 294 297 296 296 295 296 295 296 298 299 296 295 297 298 299 298 299 299 299 298 297 293 294 292 293 295 293 293 293 292 291
289 284 290 294 295 296 298 299 298 298 299 300 298 297 296 297 296 297 297 299 300 300 299 299 298 296 297 297 296 296 296 296 296 296 296 296 296 296 296 297 297 296 295 295 295 296 296 295 298 299 298 298 298 297 297 295 296 296 295 295 296 295 295 296 296 296 295 294 295 297 296 297 300 300 298 296 297 295 292 291 291 292 293 293 294 292 293
288 286 288 292 295 297 299 298 297 297 299 300 299 298 299 298 298 298 298 300 300 300 299 298 298 296 296 296 294 296 297 296 296 296 296 296 296 297 297 297 297 296 295 295 296 297 298 296 298 299 298 298 298 297 295 295 295 295 296 294 292 292 294 294 296 296 295 298 297 296 297 297 295 294 295 297 295 295 293 292 291 291 291 292 292 291 291
289 291 293 294 296 295 297 298 298 298 299 299 299 298 298 299 299 298 299 301 301 300 299 298 298 297 295 295 295 296 296 296 296 296 297 297 297 297 297 297 297 297 296 296 296 297 298 297 297 298 297 298 297 295 295 295 295 295 294 293 292 292 293 295 297 295 293 293 295 294 294 295 294 295 295 296 297 295 293 293 294 295 294 293 294 291 292
285 289 293 295 289 287 292 296 299 300 300 300 300 298 298 299 299 299 298 297 297 299 299 298 299 298 295 294 295 296 297 297 296 296 297 297 297 298 298 299 298 298 299 298 297 297 298 299 298 299 297 297 296 295 295 295 295 295 294 292 292 293 293 294 295 294 293 293 296 296 294 296 296 296 295 295 296 298 295 298 294 292 294 293 296 294 293
285 291 293 295 295 294 296 298 299 300 300 300 299 299 299 299 300 300 299 297 297 297 297 299 300 299 297 296 296 296 296 296 297 298 298 297 297 298 297 298 298 299 298 300 299 299 300 301 300 299 298 297 296 295 296 295 295 295 294 294 293 292 293 294 295 296 292 293 293 294 293 293 294 293 295 294 294 295 296 297 294 292 292 292 293 294 297
293 295 297 297 297 296 297 299 300 299 301 301 300 300 300 300 299 299 299 299 298 296 297 296 299 299 298 297 296 296 296 296 297 298 299 299 299 299 299 299 298 298 298 298 298 299 299 299 299 298 298 297 296 296 295 295 295 294 294 295 293 291 293 294 294 292 291 293 293 295 295 295 293 291 291 293 294 295 293 294 294 293 292 293 293 292 293
295 298 298 298 299 300 299 300 301 301 302 302 300 299 299 299 298 299 299 299 299 298 297 297 297 299 299 298 297 297 297 297 298 299 298 299 299 299 298 298 298 298 299 300 300 299 299 298 298 298 297 297 297 296 295 296 295 294 294 294 293 292 293 294 293 291 292 293 293 293 295 295 293 292 291 290 293 293 294 293 292 292 292 292 292 292 292
299 299 299 300 300 300 300 301 302 300 299 300 300 299 303 304 301 300 299 299 299 298 299 297 298 299 300 299 298 298 298 298 298 299 298 298 299 299 298 298 299 300 300 300 300 299 299 299 299 298 298 298 298 297 296 296 295 295 294 294 293 292 292 293 291 289 289 290 290 291 291 292 293 290 290 291 289 290 291 290 291 292 292 292 292 292 292
299 300 300 299 298 298 298 298 296 299 300 300 300 300 300 301 306 301 300 300 300 299 299 299 300 300 300 300 299 299 299 299 298 299 299 298 299 300 300 300 300 300 300 301 300 299 299 300 300 299 299 299 298 297 297 297 295 295 294 294 293 292 290 290 289 289 288 289 292 292 292 292 290 290 291 289 290 290 289 290 291 289 292 291 291 291 293
299 299 300 296 295 297 299 300 299 300 301 301 299 298 299 301 301 299 298 298 297 298 298 298 299 298 298 298 299 298 298 299 299 298 299 299 300 301 301 300 300 300 301 301 301 301 300 301 300 300 300 300 299 298 298 296 296 295 295 294 295 294 293 293 291 289 290 291 291 291 292 292 292 290 289 288 288 289 289 290 290 291 291 292 291 291 292
300 300 299 300 300 301 301 300 298 299 300 300 301 300 298 299 299 299 299 299 299 298 297 297 298 300 300 299 300 299 299 299 299 298 299 300 301 301 301 300 300 300 300 300 301 300 300 300 300 300 301 300 300 299 298 297 296 296 295 295 295 294 293 293 292 290 291 291 292 293 291 291 290 290 290 290 289 291 290 291 291 290 292 292 293 295 292
300 300 300 300 301 300 300 299 299 298 300 300 300 299 299 299 297 298 300 300 299 299 299 299 298 298 300 300 300 300 299 299 300 300 300 301 301 301 300 300 300 299 299 299 300 300 300 301 300 300 301 300 300 299 298 297 297 297 296 296 296 295 294 294 292 292 292 292 292 290 291 291 289 291 289 290 291 291 291 292 292 292 291 292 293 292 291
299 300 300 301 301 299 298 298 298 299 299 299 301 300 299 298 298 298 298 299 299 300 299 299 299 298 299 300 300 301 301 301 301 300 300 301 300 301 300 300 299 297 298 299 300 300 300 300 301 301 303 302 301 300 299 298 297 297 296 295 296 292 290 290 289 292 292 292 290 291 290 289 290 290 290 291 292 291 291 292 291 291 290 291 292 291 292
299 299 300 300 300 300 299 299 298 298 298 298 299 299 299 298 297 297 298 298 299 300 299 299 299 299 299 301 301 300 300 300 300 300 300 300 300 301 301 301 301 298 301 301 300 300 301 301 300 302 303 302 301 300 299 298 298 297 296 293 296 295 291 288 290 291 290 289 288 287 286 288 288 290 290 290 291 292 291 292 292 292 292 291 292 292 293
297 296 297 297 297 297 297 298 298 298 298 297 299 300 300 300 301 300 300 300 300 299 300 300 300 301 300 300 300 300 300 300 300 300 300 299 300 301 301 302 302 302 302 302 301 301 301 301 302 303 302 302 301 300 299 298 298 297 297 297 297 295 291 288 290 290 288 287 287 287 287 286 287 287 288 290 290 290 291 292 292 292 292 292 292 294 293
299 298 299 300 299 299 298 298 297 298 298 299 300 300 300 299 300 300 300 299 300 299 300 301 301 301 301 300 300 300 300 299 297 298 299 300 300 301 301 301 302 302 302 302 302 302 302 303 303 302 302 303 302 300 299 298 298 298 297 297 296 295 294 292 291 290 289 288 289 289 288 288 288 289 288 290 290 290 290 291 291 291 291 292 293 294 293
301 301 301 301 301 301 300 301 299 298 298 298 298 298 299 299 299 299 300 300 299 300 301 302 302 302 302 301 300 300 299 300 300 300 300 301 301 302 302 301 301 301 301 301 302 302 303 303 303 303 303 303 302 301 300 299 298 298 297 297 295 295 294 292 291 290 290 291 290 290 289 289 290 289 290 290 291 291 291 290 291 291 290 292 293 292 292
302 301 301 301 301 301 301 300 300 300 299 299 300 300 299 299 299 299 298 299 302 302 302 302 301 301 301 301 300 300 300 301 301 301 301 302 302 302 301 301 301 301 301 301 302 303 303 303 295 295 303 302 301 301 300 299 299 298 297 297 295 294 293 292 292 291 291 291 290 290 291 290 290 290 289 290 290 290 290 290 291 291 292 292 292 292 293
302 302 302 302 302 301 301 301 301 300 300 300 300 299 300 299 299 300 300 301 302 302 302 302 301 300 301 301 302 302 302 302 302 302 302 303 303 302 302 302 301 301 300 301 302 301 302 303 294 291 298 300 301 301 298 292 299 297 297 297 295 294 292 291 291 291 291 291 291 291 290 289 290 290 289 290 291 291 290 291 291 292 292 292 291 291 290
303 303 302 302 303 302 301 302 302 301 301 299 300 299 300 300 300 300 300 300 301 302 302 302 302 302 302 302 302 302 302 302 302 302 302 303 303 302 302 301 300 300 300 302 302 302 302 300 291 294 301 300 301 300 296 291 293 297 297 297 295 294 292 292 291 290 291 292 290 292 291 291 291 291 291 291 292 292 292 292 292 292 291 291 291 290 290
302 302 302 303 303 302 302 302 301 300 301 300 300 300 299 300 300 299 299 300 301 301 302 302 303 302 302 301 301 302 303 303 303 302 302 302 302 303 301 303 303 303 304 304 303 303 302 298 297 299 300 301 301 300 295 289 291 298 297 297 296 294 293 292 292 291 291 292 291 291 291 291 291 291 292 293 294 293 291 291 290 291 292 290 289 290 290
301 302 302 302 302 302 302 302 301 301 300 301 301 300 300 299 299 299 299 300 300 298 301 302 302 301 301 301 301 302 303 303 303 303 303 303 302 302 302 302 302 303 302 296 302 302 296 292 298 302 301 301 301 300 296 292 293 297 297 297 296 294 293 293 292 292 292 291 292 289 291 292 292 293 292 293 293 291 291 290 290 289 289 290 290 289 288
302 302 302 302 302 302 302 302 301 302 301 300 300 301 301 301 300 299 299 300 300 300 300 301 301 301 302 302 303 303 304 303 303 304 304 303 301 301 300 301 302 303 302 302 303 301 294 294 300 301 300 300 301 297 298 292 294 297 297 296 296 294 293 293 292 292 292 292 291 292 292 292 292 293 292 292 293 292 291 291 292 290 290 290 289 288 288
301 302 302 302 302 301 301 302 302 301 300 300 300 300 300 301 301 301 300 301 300 300 300 300 297 301 302 303 303 303 303 303 304 304 304 302 302 301 300 302 303 304 297 296 296 296 296 298 299 297 301 300 299 293 293 293 295 297 297 296 295 294 294 294 293 293 293 293 293 292 292 293 294 294 293 292 291 290 290 290 291 290 289 288 288 288 288
302 301 301 301 301 301 301 300 300 301 300 300 300 300 301 301 301 301 301 301 301 300 300 300 298 296 298 300 301 301 302 303 303 303 303 304 305 305 304 304 304 304 293 297 301 300 299 299 300 300 297 297 298 292 290 296 296 297 296 295 295 294 294 294 294 293 292 292 293 294 295 295 295 293 291 291 291 291 290 290 289 289 288 288 289 288 288
301 302 301 301 301 301 300 300 300 300 300 300 301 301 301 301 301 301 301 301 301 301 302 301 301 300 299 300 301 301 301 302 302 302 302 301 300 301 302 303 303 299 291 298 300 300 300 300 301 298 292 292 292 291 295 298 298 298 297 296 295 294 294 294 293 293 293 294 295 295 295 292 292 291 291 291 291 291 290 289 288 288 288 288 288 287 287
300 301 301 301 301 300 300 300 300 300 300 300 301 300 300 300 301 301 302 301 301 301 300 302 301 301 301 301 301 302 303 304 304 303 301 299 299 301 300 297 302 299 295 294 300 300 300 301 298 293 292 291 291 290 298 298 297 296 297 296 296 295 294 294 294 294 294 294 294 293 291 292 291 291 291 291 289 289 288 288 289 288 288 287 287 286 287
300 301 301 296 300 301 301 301 302 301 300 300 300 299 299 300 301 301 302 302 301 301 302 302 302 302 302 303 301 302 303 303 304 305 306 304 303 303 302 297 300 296 294 293 299 299 300 294 293 291 291 291 290 292 297 297 296 296 295 295 295 294 295 295 295 294 294 292 291 291 291 291 291 290 290 289 289 288 287 287 287 288 286 286 286 286 286
302 301 301 300 301 301 301 301 301 300 299 299 299 299 299 299 300 301 302 302 303 302 302 302 303 303 303 304 303 301 300 300 300 301 303 303 303 300 296 294 294 293 292 297 299 299 299 297 292 291 291 291 290 296 297 297 296 296 295 295 295 296 295 296 294 293 291 291 290 290 289 290 290 289 287 287 287 287 286 286 286 285 285 286 286 286 285
301 302 302 302 301 301 301 300 299 299 299 300 300 301 300 300 301 302 302 302 302 302 302 302 302 303 303 303 303 304 304 302 300 300 301 300 300 300 299 299 298 292 292 293 294 294 292 292 291 290 290 289 293 298 298 298 296 296 296 296 296 295 294 292 291 291 290 289 290 290 289 289 288 288 287 287 286 286 286 286 285 284 285 285 285 285 285
302 302 303 303 302 301 301 300 300 298 300 300 299 300 300 300 301 301 301 302 302 302 302 302 302 302 303 301 302 303 303 304 304 302 302 301 300 301 301 295 292 290 293 298 299 297 292 290 290 290 289 289 296 298 297 296 296 295 296 295 294 293 292 292 291 291 290 290 290 290 289 289 288 287 287 286 286 286 285 285 285 285 284 284 284 284 284
301 301 300 300 300 300 300 300 299 300 301 300 300 300 300 301 300 301 301 302 302 300 301 301 300 301 301 301 300 301 303 303 303 304 303 301 302 301 299 298 295 291 293 299 298 298 291 289 289 289 290 294 297 297 297 297 296 296 294 293 292 291 291 290 288 288 290 289 289 289 289 288 288 287 286 286 285 285 285 284 284 284 284 284 283 283 282
300 300 300 299 300 302 302 302 302 302 301 300 301 300 300 301 301 301 301 302 301 300 300 300 299 300 300 300 300 301 302 303 302 298 301 300 300 296 295 296 295 293 295 296 297 296 292 290 291 290 291 295 296 296 295 295 294 292 291 292 292 291 290 289 290 290 290 289 289 288 287 287 287 286 286 285 285 284 284 284 283 283 282 282 282 282 281
301 301 301 301 300 300 301 303 302 301 301 300 299 299 300 301 301 301 301 295 302 301 301 300 299 299 299 301 300 300 301 302 299 299 297 298 298 298 295 292 296 294 295 296 296 294 292 291 290 289 291 294 294 294 291 291 292 292 291 290 289 290 290 290 290 290 289 289 288 287 287 286 286 285 284 284 284 283 283 283 283 282 282 282 281 281 280
Wind_Speed
6 6 7 5 2 2 3 4 4 5 5 5 7 6 8 5 5 8 4 5 5 5 9 11 11 12 12 11 11 11 10 6 4 4 5 6 5 4 3 4 3 4 2 2 1 0 1 3 4 7 4 3 3 4 3 3 4 4 3 4 4 4 4 4 4 3 4 5 6 7 7 8 8 7 7 7 7 7 7 7 6 7 7 7 7 8 8
4 6 4 3 4 3 2 3 5 6 6 7 9 8 7 9 6 7 7 6 11 8 6 10 10 8 9 9 6 4 5 7 7 7 6 6 6 6 6 5 4 4 4 4 4 2 1 1 3 5 3 3 3 4 2 3 4 4 4 5 4 4 5 4 4 5 6 7 8 8 9 9 7 7 7 6 6 7 7 6 6 6 7 7 7 7 7
5 6 4 6 9 6 5 6 7 7 5 6 7 4 5 5 5 4 4 6 9 6 4 5 4 6 5 5 7 9 9 8 9 8 8 8 8 8 7 5 4 4 5 4 4 3 2 1 4 4 4 4 3 2 2 3 4 4 3 5 5 5 5 5 6 6 7 7 8 8 7 8 7 8 7 6 7 7 6 6 6 6 6 8 7 7 7
5 4 2 2 2 7 6 5 7 9 6 5 4 4 6 4 6 4 1 2 6 5 1 3 6 8 10 11 10 9 8 9 9 10 10 9 9 8 8 6 5 5 6 5 4 3 2 3 5 6 5 4 3 3 3 3 3 4 4 5 5 5 5 6 6 6 6 7 8 7 7 8 7 6 7 8 8 7 8 9 7 7 8 7 7 6 6
3 8 1 6 2 2 3 8 13 13 8 5 3 3 3 7 6 3 4 8 7 6 4 6 5 10 10 9 10 9 9 10 11 12 12 11 10 10 8 8 8 8 9 6 5 4 5 5 6 4 5 5 3 1 3 2 4 5 4 4 5 5 5 6 5 5 6 8 7 7 7 6 5 6 6 7 6 6 6 4 5 7 6 6 6 5 5
3 7 5 2 0 1 7 9 7 11 9 8 6 4 5 5 5 6 7 8 4 4 5 9 9 9 12 14 13 13 13 11 10 10 9 9 8 7 8 10 11 10 7 5 5 7 6 5 5 5 4 5 4 2 3 2 6 4 4 4 4 5 5 5 5 6 7 7 7 6 5 6 6 7 7 6 4 4 4 5 5 5 6 6 5 6 5
3 3 3 3 2 7 7 7 4 7 8 6 9 3 3 4 4 1 0 1 7 11 11 11 13 14 11 8 10 8 8 9 10 11 10 7 6 9 10 10 10 9 8 8 7 7 6 5 3 4 3 4 4 5 4 5 5 5 4 4 4 4 5 4 5 7 7 7 6 5 5 6 6 7 6 5 5 4 4 4 5 5 5 5 4 4 4
1 2 1 0 3 4 4 6 3 1 5 3 3 2 4 6 7 6 6 8 9 9 9 6 6 7 7 5 5 10 9 9 10 9 7 7 8 10 10 12 10 8 7 6 9 8 6 6 4 4 4 4 6 4 4 6 6 6 5 4 4 4 5 4 5 6 7 6 5 5 5 5 5 4 3 3 3 3 3 4 4 4 4 3 3 3 4
2 2 2 6 4 6 3 2 2 3 4 3 5 5 7 5 5 9 8 8 5 5 7 6 5 3 3 4 5 5 8 9 8 9 7 8 8 9 7 10 9 8 8 6 7 7 6 7 6 5 5 6 6 5 5 5 6 5 6 4 3 3 4 4 4 5 6 6 5 4 4 4 3 3 3 2 3 2 4 3 2 2 2 2 3 4 4
1 1 3 4 2 2 7 9 6 4 2 3 4 3 4 4 4 6 8 9 9 9 6 5 4 6 5 3 8 9 8 8 7 3 7 7 7 7 8 7 9 8 6 5 4 7 7 6 6 5 5 7 7 7 5 4 6 5 5 4 3 4 4 4 4 5 5 6 5 4 4 4 3 2 1 0 1 0 2 1 1 2 2 4 3 3 3
2 1 1 2 1 5 7 9 8 5 2 7 5 2 4 4 3 4 8 8 9 11 10 7 8 8 7 10 10 10 8 6 7 9 8 8 8 9 10 11 10 8 7 8 7 7 7 6 4 5 5 7 7 6 5 4 5 5 4 3 4 4 4 4 4 4 4 5 4 4 4 3 4 3 2 2 1 0 0 0 1 3 3 3 4 4 3
3 2 1 4 3 4 3 4 4 4 4 5 4 1 5 4 2 4 6 9 9 9 10 11 11 11 9 9 10 6 8 9 8 11 10 9 9 8 8 8 10 9 7 6 5 6 6 7 6 4 5 7 6 5 4 4 5 4 4 4 4 4 5 4 4 4 4 4 3 4 3 2 2 3 2 0 1 1 2 1 2 3 3 3 4 5 5
5 5 4 2 5 6 8 6 5 2 2 5 2 5 7 4 4 5 7 10 10 9 9 9 10 10 8 9 6 6 7 7 5 6 8 10 10 10 8 9 6 7 8 9 9 8 7 8 7 5 5 7 7 7 6 5 4 4 4 3 4 5 5 5 4 4 4 4 4 3 4 4 3 1 1 2 1 1 2 4 3 4 3 4 5 6 6
6 5 4 7 5 9 7 3 5 4 3 2 6 6 3 6 4 4 5 8 6 7 10 8 8 8 5 1 6 10 12 13 10 8 7 6 5 6 6 8 7 6 6 6 5 6 4 7 6 4 6 8 6 5 6 5 5 5 4 4 5 4 4 3 4 4 4 4 4 4 3 2 2 1 1 1 1 0 2 4 5 5 5 6 7 6 6
2 2 2 3 4 4 4 6 2 1 3 6 6 2 1 4 6 5 3 6 8 8 7 5 4 5 5 7 8 9 9 10 8 7 7 8 8 7 5 5 5 8 6 6 6 6 4 5 7 7 9 8 6 5 7 6 6 5 5 5 4 4 3 1 1 3 5 5 4 2 2 4 4 3 1 1 0 1 3 4 4 4 4 5 6 6 5
5 4 3 5 9 6 5 9 6 5 8 3 5 6 3 3 4 5 4 2 7 9 10 7 5 7 7 4 6 6 6 7 6 6 6 5 5 5 6 8 7 7 6 5 4 4 5 6 6 6 9 7 5 6 6 5 4 4 5 5 4 3 1 1 2 3 6 5 4 4 2 3 2 3 3 2 0 1 3 4 4 4 4 4 5 5 4
4 6 7 9 6 6 5 6 5 8 8 4 7 6 6 5 5 4 5 5 5 8 11 11 11 7 10 13 10 11 9 8 8 8 7 8 8 8 8 7 7 7 8 7 6 5 6 7 5 7 7 9 6 6 6 5 4 5 5 5 4 2 0 0 1 4 4 4 5 4 2 3 4 4 4 3 2 0 3 4 4 4 3 3 4 3 3
3 3 6 3 1 2 5 7 4 6 5 5 6 8 6 6 6 7 7 6 8 6 10 12 8 12 8 7 7 6 7 6 5 5 5 5 6 8 7 6 8 8 7 8 8 8 5 5 6 7 6 9 9 7 5 4 5 6 6 5 5 3 1 0 1 4 5 4 3 3 2 3 5 6 7 4 5 2 3 3 4 5 2 2 3 3 2
5 4 3 5 6 4 6 10 6 4 6 8 7 5 5 5 5 5 4 10 9 9 8 12 10 5 6 8 6 7 7 8 9 9 10 8 9 10 10 11 7 7 8 8 7 6 7 4 6 6 7 6 7 6 5 4 6 6 6 5 4 2 1 0 2 4 5 3 1 1 3 4 6 6 6 6 5 3 4 4 3 3 2 1 1 1 1
5 5 4 5 5 7 7 7 7 6 6 5 6 5 6 6 6 7 8 10 10 8 8 8 9 9 7 8 6 7 8 9 10 9 9 10 7 8 8 7 7 7 7 7 5 6 6 6 7 6 5 5 5 6 4 5 6 6 5 5 4 4 2 1 1 2 4 4 2 1 5 6 5 4 4 6 6 6 5 6 6 4 3 3 2 2 2
5 4 7 3 0 2 5 6 7 6 6 6 5 4 7 6 7 6 9 12 12 11 11 9 9 9 7 8 10 8 6 8 9 10 10 11 11 7 5 5 6 9 9 8 7 6 6 4 5 4 5 5 6 6 5 6 6 6 5 5 5 4 3 1 1 1 3 2 1 2 3 4 5 5 7 6 6 4 4 5 7 6 6 4 4 4 5
1 6 6 1 2 5 7 7 11 11 7 7 6 4 6 7 9 7 7 5 6 10 11 12 11 12 8 6 7 9 9 10 11 10 10 9 8 8 8 8 8 7 8 8 8 7 8 5 6 6 6 6 6 5 6 5 6 6 5 4 4 4 2 2 2 1 2 2 1 2 2 6 5 2 2 2 6 7 4 6 7 8 8 5 6 5 5
3 5 6 5 3 4 9 9 8 8 6 7 8 8 9 9 10 10 9 7 2 4 6 10 14 13 13 11 8 8 7 8 10 10 10 9 7 8 6 7 7 8 7 8 8 7 6 6 7 8 8 7 7 6 6 6 7 6 5 4 4 4 3 3 5 4 3 3 3 3 3 3 4 3 1 1 2 4 3 8 9 8 8 7 7 7 6
4 5 6 3 3 4 4 5 4 7 8 10 11 9 10 12 11 10 11 12 11 7 7 5 10 14 13 12 10 10 7 7 7 9 11 12 12 10 9 10 9 8 7 6 7 7 6 5 7 8 9 8 8 8 6 6 6 7 5 6 6 5 5 5 6 4 3 3 2 1 0 0 1 3 5 4 1 4 3 4 6 8 9 8 8 8 8
4 3 2 3 4 6 5 3 1 4 6 10 9 10 11 10 9 11 12 10 9 12 9 7 5 10 13 10 10 11 9 8 10 12 12 12 11 10 8 7 9 8 8 8 7 7 6 6 7 8 8 8 8 7 7 7 7 7 6 5 5 4 4 5 5 4 2 3 1 1 2 1 3 4 5 5 5 4 4 0 4 6 7 8 9 9 9
5 5 3 2 1 5 4 2 2 2 4 5 7 6 11 14 14 10 11 11 9 8 10 7 8 8 13 13 10 10 8 10 11 11 9 9 8 9 9 10 10 8 8 7 7 7 6 7 7 8 9 9 8 8 9 9 8 7 7 6 6 6 5 5 6 4 5 3 3 2 2 3 5 6 5 6 6 5 4 3 2 2 5 9 11 10 11
4 4 2 8 7 7 3 4 6 5 7 6 9 11 9 8 14 13 10 11 12 10 10 11 12 12 12 14 12 11 13 9 8 8 10 10 11 12 12 10 9 10 9 8 7 8 9 7 6 6 9 10 9 10 10 9 8 7 7 6 5 6 9 7 6 7 6 5 4 3 2 2 3 6 6 6 5 5 4 3 3 4 5 5 6 10 11
5 4 3 4 6 7 7 7 8 7 8 9 6 6 6 6 6 7 7 5 5 6 6 7 9 9 10 8 10 8 7 10 12 10 9 11 10 9 9 9 10 9 9 9 9 9 8 7 8 7 7 7 9 10 10 8 8 8 8 7 6 5 5 6 5 5 5 4 4 4 4 5 6 6 5 4 4 4 3 2 3 4 6 6 5 5 10
8 6 4 6 8 9 8 6 5 5 5 5 6 5 5 7 7 9 10 11 12 9 6 5 6 12 13 10 10 12 11 11 11 11 12 11 9 9 9 10 10 9 9 9 9 8 8 7 8 8 9 6 9 11 10 9 9 9 8 7 7 7 6 6 6 5 6 4 4 4 5 5 5 4 4 4 3 2 2 3 4 4 6 6 5 6 2
7 6 6 6 7 7 7 8 8 7 8 6 6 6 7 10 8 8 11 11 9 11 10 9 7 7 8 10 10 12 12 12 14 13 12 11 10 9 8 8 7 6 5 7 8 8 9 10 9 9 10 6 9 10 11 10 9 9 9 8 8 8 7 6 5 5 5 4 5 5 5 5 5 6 5 4 4 4 4 4 5 5 6 6 5 5 5
7 6 8 7 6 5 5 8 7 8 8 7 9 9 7 7 10 9 9 9 9 11 8 9 11 11 9 12 12 12 13 13 12 12 11 11 10 9 9 8 9 8 9 11 10 9 9 9 10 11 10 7 9 10 11 11 9 9 7 7 6 9 10 9 7 7 7 5 5 5 6 5 6 4 4 4 4 4 5 5 5 6 6 6 6 6 7
8 10 10 8 7 7 7 6 7 8 7 6 7 9 10 9 8 10 8 8 10 12 11 10 11 13 13 11 11 11 11 10 10 10 10 10 10 10 9 10 12 12 11 11 9 9 9 9 10 12 10 8 9 11 12 12 10 9 9 8 8 7 8 10 6 7 6 7 7 7 8 7 5 5 4 5 6 6 6 5 6 6 7 6 7 7 8
8 10 11 10 7 6 6 7 9 10 10 8 9 10 9 10 10 10 11 10 9 8 10 12 12 13 12 11 10 10 11 11 11 10 9 10 10 10 10 9 10 11 10 10 10 10 10 11 13 11 9 9 9 11 12 12 11 10 9 8 8 8 7 8 9 7 6 7 7 8 7 8 7 6 7 7 7 5 5 6 6 6 7 7 7 8 7
12 12 13 11 9 10 8 9 8 10 9 9 9 8 7 8 9 9 9 9 10 11 11 12 13 12 11 11 12 11 10 8 7 8 11 11 11 11 10 11 10 10 10 10 8 8 8 11 10 9 10 9 10 10 10 11 11 10 9 8 8 7 8 8 7 7 7 8 8 7 6 6 6 6 6 7 6 5 6 6 6 7 7 7 7 7 8
12 13 12 11 10 10 9 10 8 8 8 8 8 7 8 8 8 9 11 11 10 12 11 11 11 11 12 12 12 11 11 13 14 14 13 12 11 12 10 9 7 6 6 6 7 9 10 10 9 9 10 11 10 9 10 11 10 10 9 10 10 8 8 8 7 7 8 8 7 6 6 6 6 6 6 7 6 7 6 7 7 7 7 7 8 7 7
12 12 11 11 11 11 10 10 9 9 9 10 11 11 10 10 9 7 9 10 11 11 10 10 10 9 10 11 11 11 12 13 13 13 13 13 13 10 7 8 8 8 9 9 8 9 8 9 12 13 10 9 9 9 10 10 10 10 10 10 9 8 7 8 8 7 7 7 7 7 7 8 8 7 7 7 6 6 6 7 7 7 7 7 8 7 6
13 14 13 13 11 10 11 10 9 8 8 10 10 10 10 9 10 9 9 9 10 11 11 10 8 10 11 12 13 14 14 14 13 12 13 12 9 8 9 9 9 9 9 9 10 7 7 8 12 16 11 8 9 9 11 15 10 9 8 9 8 8 8 7 7 7 7 7 7 7 7 5 6 7 6 6 6 7 7 7 8 7 8 7 4 3 5
15 14 15 14 14 12 12 11 9 9 9 8 9 9 12 11 10 9 8 9 9 11 10 11 12 12 12 11 11 12 13 13 13 13 12 10 9 9 9 9 9 8 9 11 7 7 7 10 14 11 7 8 9 9 11 16 14 11 9 9 9 8 8 8 7 7 7 7 7 7 7 7 7 7 7 6 7 7 7 8 8 6 5 5 6 4 2
14 12 11 13 12 12 12 11 9 7 9 11 11 10 10 11 10 9 9 9 9 10 10 11 11 10 10 10 10 10 11 12 12 11 10 10 9 11 11 13 13 15 14 8 8 9 9 10 9 9 8 8 9 8 11 15 16 11 10 9 9 8 9 8 8 8 8 8 7 7 7 7 7 7 7 8 7 8 8 6 6 7 7 4 3 4 4
13 13 13 13 12 12 11 11 9 9 9 10 11 11 10 9 9 9 9 9 8 9 10 10 10 11 11 11 11 11 11 11 11 11 11 10 10 11 9 7 7 8 7 11 10 8 11 14 12 9 8 9 9 8 9 14 14 10 9 9 9 8 8 8 8 7 8 7 8 8 7 7 7 7 8 8 7 5 6 7 7 5 5 6 5 5 4
13 12 12 11 12 12 11 11 10 10 10 9 9 10 9 10 10 9 9 10 10 8 10 9 10 11 12 12 13 13 12 11 11 12 11 8 9 9 10 11 10 8 8 9 8 9 12 11 9 9 8 8 8 10 10 15 13 9 8 9 8 8 7 8 8 8 8 8 7 7 7 7 7 8 8 7 7 7 7 7 7 7 7 7 4 4 6
11 11 11 11 11 11 10 10 9 8 8 9 10 10 10 10 10 12 11 10 9 9 9 10 13 13 11 11 11 11 10 10 11 11 11 13 13 11 12 11 9 9 12 12 11 10 9 9 9 9 9 9 9 14 14 11 9 8 8 8 8 8 8 9 9 9 8 7 7 7 7 7 7 8 8 7 7 7 7 6 6 6 4 5 6 7 7
11 9 9 10 10 9 9 8 8 10 9 9 8 9 10 9 10 9 9 9 9 8 9 8 9 10 9 8 8 9 9 8 9 10 10 11 14 16 16 12 10 11 15 11 10 8 9 9 9 8 12 12 11 15 14 10 9 9 8 8 8 8 8 9 9 8 7 7 7 6 7 7 7 6 6 7 7 6 5 6 7 6 6 7 6 6 5
10 8 8 8 9 9 8 8 7 6 7 8 8 8 9 8 9 10 9 9 8 9 9 8 8 8 8 8 8 8 8 8 8 8 9 8 5 5 4 5 9 11 16 11 10 10 9 10 9 12 15 17 16 16 11 9 10 9 9 9 9 9 9 8 8 7 7 7 7 8 7 5 6 7 7 7 6 6 5 6 7 7 7 6 6 5 5
7 8 9 10 9 8 7 7 7 10 8 5 6 7 7 8 8 8 9 9 9 9 7 8 8 8 8 8 9 10 10 10 11 10 9 8 8 10 6 7 10 10 13 14 10 10 9 10 13 17 15 18 17 17 11 9 9 10 9 9 9 9 8 8 8 7 7 7 7 7 6 7 7 7 6 6 6 7 7 7 7 7 7 7 6 5 4
6 7 7 8 8 8 9 10 9 7 5 5 5 6 7 8 9 8 8 9 9 9 9 9 9 9 9 10 8 7 6 7 8 11 13 13 13 12 11 11 10 11 17 17 10 10 9 14 16 17 18 19 18 14 10 9 8 8 8 9 8 8 8 8 7 7 8 7 6 7 7 6 6 6 6 6 7 7 6 7 6 6 4 5 6 6 6
7 7 7 7 8 8 7 7 6 6 5 5 6 6 6 6 7 7 7 8 9 9 8 8 8 9 9 10 9 7 6 5 5 7 6 6 9 10 13 16 15 17 15 12 9 10 10 12 13 17 18 18 16 11 10 8 8 8 8 8 8 8 7 7 8 7 7 7 7 7 7 8 7 7 7 7 7 7 7 7 6 6 6 6 6 6 7
6 7 8 8 8 8 6 5 4 5 6 9 9 8 8 6 7 7 7 7 7 7 7 7 7 7 7 7 8 9 9 10 8 8 6 6 4 6 8 8 10 13 16 14 15 13 16 16 17 17 17 15 12 9 9 9 8 8 8 8 8 7 7 7 7 7 7 8 8 8 7 7 7 7 7 7 7 6 6 7 7 6 6 6 6 6 6
6 7 7 7 7 7 7 8 7 7 8 8 7 8 6 7 7 6 6 6 7 7 8 7 7 6 7 8 8 7 7 9 9 9 8 8 7 8 9 12 15 17 14 11 11 9 13 16 17 16 16 13 10 9 8 8 8 9 9 8 8 8 8 8 8 8 9 9 8 8 8 8 8 8 7 7 7 7 7 7 6 7 7 7 7 6 6
4 4 4 5 6 6 6 7 7 8 9 8 8 8 6 6 6 6 7 8 9 8 8 7 7 7 7 7 7 7 7 8 7 6 8 8 8 7 8 9 10 13 14 11 10 10 10 13 12 13 12 10 9 9 8 8 8 8 8 8 8 7 8 9 8 9 9 8 8 8 8 8 7 8 8 7 7 7 6 7 7 8 10 8 7 6 6
4 4 6 7 7 7 8 9 9 9 8 9 8 7 7 8 9 9 9 9 7 8 7 7 7 7 7 7 6 7 7 8 7 8 8 8 9 9 10 8 10 11 11 11 10 9 7 7 8 9 10 9 8 8 8 8 7 7 8 8 8 8 8 9 9 9 8 8 8 8 8 7 8 8 7 7 7 7 7 7 7 6 6 6 6 6 6
5 5 5 5 6 6 6 7 7 7 6 7 6 7 8 8 8 8 8 9 10 9 9 8 7 7 7 7 8 7 7 8 7 7 8 9 9 8 10 11 9 10 11 9 9 7 7 8 9 11 11 9 8 7 7 8 8 8 7 7 7 7 8 9 8 8 8 8 8 8 8 7 8 8 7 7 7 7 7 7 7 6 6 6 6 6 6
Wind_Direction
241 226 222 214 159 240 231 231 222 227 215 164 183 215 220 149 190 218 251 185 198 245 210 206 197 183 185 181 183 187 183 175 174 185 209 223 224 228 231 229 195 168 186 193 229 203 309 10 106 135 115 113 103 59 6 358 19 3 5 37 25 33 38 26 360 12 45 45 42 38 40 48 53 56 59 62 61 61 60 62 64 62 62 65 67 66 63
299 287 269 161 202 219 261 271 249 233 232 225 201 221 211 189 220 216 228 198 214 222 215 206 207 187 177 186 177 148 155 181 188 199 211 216 220 215 218 218 201 206 214 222 224 228 270 104 100 131 134 116 93 104 88 17 22 353 18 38 36 39 42 24 29 32 44 49 49 52 56 56 52 52 53 54 59 62 65 68 68 65 65 66 67 69 77
296 274 282 178 202 206 232 244 252 252 236 251 241 233 247 205 252 258 217 212 245 257 211 216 178 167 158 143 165 178 187 184 194 203 209 214 215 212 215 205 194 204 228 240 244 235 252 285 100 133 128 133 129 89 53 40 20 5 48 58 43 38 31 31 41 47 57 61 60 57 59 56 48 46 45 46 47 47 51 59 66 66 65 59 58 62 71
301 292 330 306 181 225 228 247 251 252 240 249 235 215 218 178 226 233 114 225 257 267 218 160 154 157 165 178 183 186 194 194 196 206 211 211 214 213 207 198 188 201 223 226 238 203 254 78 119 142 143 131 118 128 104 53 21 29 49 71 61 45 39 49 47 48 55 64 65 61 63 60 56 47 42 40 37 33 32 30 31 45 52 54 54 55 61
257 263 34 316 9 85 319 273 241 228 223 209 246 251 216 206 167 152 190 234 220 207 159 138 177 169 182 179 186 192 196 200 201 208 210 209 211 208 202 191 190 198 212 201 206 137 100 116 129 155 146 129 130 158 74 56 68 54 49 58 70 56 54 61 57 49 56 65 64 60 58 62 67 66 60 51 41 36 34 29 37 41 41 48 49 53 61
251 291 328 316 11 296 241 234 208 192 207 205 216 228 215 227 155 207 191 215 198 141 158 162 182 178 191 191 198 188 184 195 207 218 220 216 206 194 192 181 181 193 186 180 171 127 128 146 152 162 151 132 142 131 111 91 79 65 70 49 66 65 61 64 67 64 68 71 66 59 54 53 52 52 52 48 40 34 32 33 41 41 38 41 40 42 48
266 299 9 25 269 234 247 282 235 186 194 179 194 230 224 239 235 357 62 146 163 186 184 182 186 194 197 189 180 198 201 190 197 208 218 213 194 177 171 169 175 174 175 184 140 122 133 138 132 98 79 92 74 73 86 82 80 78 51 53 52 64 67 64 73 77 74 72 67 55 56 57 55 50 44 34 26 17 21 18 23 26 38 37 33 38 40
24 20 59 109 242 245 283 304 325 189 111 138 114 308 289 229 207 181 193 197 194 191 199 206 191 182 188 179 198 194 199 195 193 206 198 193 174 168 172 170 175 164 167 162 127 127 146 133 147 136 95 72 85 80 78 90 80 76 70 55 44 60 67 72 83 88 90 83 76 74 73 68 68 61 44 32 28 3 21 12 16 20 10 27 29 26 34
213 204 166 223 294 324 305 324 275 170 196 178 161 211 268 238 200 177 190 202 196 197 212 193 181 159 99 157 245 237 206 206 209 192 183 175 178 163 164 164 168 166 169 160 143 134 136 138 135 126 119 102 102 95 87 95 95 90 79 63 51 58 81 89 90 95 102 101 96 93 93 93 94 104 91 51 24 16 41 18 25 21 338 334 358 12 3
139 199 343 338 11 249 273 240 267 284 200 146 153 117 286 293 257 196 152 177 192 194 194 185 162 113 108 197 246 232 225 212 200 177 172 161 153 153 148 155 152 161 165 146 133 130 139 141 147 141 132 121 117 112 111 104 93 85 89 87 73 64 76 103 104 104 108 111 110 109 106 119 137 153 159 237 128 127 117 87 18 310 307 346 338 340 342
65 49 176 220 196 248 224 246 243 264 174 120 101 66 292 264 228 204 160 171 183 179 171 175 134 139 174 215 221 222 200 194 175 162 164 153 150 149 146 148 154 164 169 152 147 134 132 139 172 153 137 119 117 122 123 115 107 106 110 119 93 93 105 117 116 112 112 112 119 122 128 153 152 160 167 179 244 309 216 359 299 308 333 340 327 336 330
210 157 193 249 210 248 278 237 249 227 136 89 60 291 267 255 244 197 157 159 174 180 167 155 162 160 193 216 232 214 186 175 169 148 149 144 148 149 151 154 159 163 145 127 123 135 135 166 175 163 138 123 125 116 124 125 112 124 141 156 134 121 122 127 131 124 127 126 138 143 166 179 185 179 200 75 281 313 322 49 302 318 326 353 357 355 4
212 174 251 324 300 277 261 228 220 169 166 78 113 216 241 237 202 208 163 170 178 168 159 161 176 212 189 202 199 155 146 133 146 143 148 155 156 156 159 171 152 148 163 155 161 163 183 168 169 166 130 120 127 137 140 120 142 161 164 161 126 130 129 141 145 138 133 142 156 178 176 182 203 186 160 191 268 312 327 359 14 1 0 6 34 40 47
200 197 195 232 242 238 217 254 162 187 99 220 216 234 205 149 201 223 151 154 191 171 169 188 193 203 227 225 147 150 160 158 163 157 150 144 153 154 165 160 141 145 146 151 154 182 186 140 146 133 130 121 133 135 129 147 177 179 149 137 128 130 114 130 159 148 147 158 162 180 176 156 190 217 274 231 177 237 75 57 48 43 38 55 66 62 57
81 115 210 313 292 283 193 131 88 64 125 233 207 141 240 186 182 171 192 141 184 171 186 195 169 142 145 150 154 158 154 148 155 151 151 155 161 142 122 141 148 139 140 145 176 194 148 149 147 158 133 136 148 148 141 174 181 167 138 127 138 123 103 110 147 153 163 159 182 197 175 162 173 197 201 180 239 23 53 56 56 53 54 64 76 75 69
165 163 173 198 212 230 203 146 185 224 203 192 173 147 185 242 191 173 172 155 173 178 158 167 159 151 146 152 147 153 162 155 148 165 157 144 128 125 150 152 160 143 137 128 145 173 166 154 148 140 131 139 145 143 169 197 177 136 131 142 122 96 89 278 119 170 156 174 180 193 179 139 157 125 148 159 86 33 67 72 59 45 27 63 79 88 95
156 199 212 240 228 200 219 179 194 202 211 184 175 158 169 170 237 202 162 175 182 172 154 156 155 165 179 169 169 161 180 161 161 161 159 151 145 146 145 153 150 141 141 147 154 155 157 152 144 149 148 139 145 160 199 184 155 136 142 138 115 110 355 312 122 163 158 169 178 192 176 128 113 128 134 140 107 15 79 71 79 74 30 53 85 99 96
256 269 201 225 258 224 197 235 203 183 201 222 167 173 180 216 194 181 169 166 167 181 157 149 177 172 179 161 176 173 163 144 162 147 142 138 138 148 147 151 159 158 150 147 152 159 180 161 153 162 153 146 163 189 193 183 142 142 139 130 133 168 256 70 104 148 162 174 177 211 135 165 142 149 154 155 140 141 97 103 102 106 92 72 65 58 58
116 252 283 223 230 249 217 207 234 232 186 187 188 168 175 186 175 178 152 153 162 170 164 161 167 183 179 171 172 167 150 144 158 161 162 160 162 157 166 176 163 148 149 152 164 164 177 212 174 176 170 180 173 172 183 160 138 142 137 138 142 124 270 239 122 149 164 175 169 245 99 130 140 153 153 143 141 140 137 129 120 126 127 117 85 66 49
161 227 237 228 234 228 229 205 202 230 227 219 212 180 179 165 175 157 157 154 161 159 163 165 160 173 182 158 163 171 165 157 161 165 165 163 167 179 169 169 159 142 145 154 180 179 196 180 189 183 177 175 172 168 154 148 142 137 141 144 149 156 215 133 135 162 194 143 157 132 127 155 152 160 145 146 147 159 157 161 146 162 152 163 175 175 197
264 301 294 286 7 297 263 248 254 236 197 191 215 149 152 141 159 164 156 167 168 170 174 164 156 156 187 171 162 165 159 153 160 165 170 171 173 164 143 174 162 165 162 169 187 178 208 183 176 169 187 182 175 157 161 157 144 137 152 162 159 176 201 122 269 174 203 141 174 160 146 199 184 183 164 165 172 201 215 168 162 164 175 193 200 200 176
269 205 244 68 5 297 290 257 235 234 219 185 174 132 160 162 164 167 164 186 159 168 163 164 160 165 175 182 162 161 166 166 170 169 171 173 164 170 168 159 168 169 163 173 183 187 204 179 164 179 192 187 174 159 165 161 146 144 166 168 159 192 176 168 235 248 235 151 157 140 163 165 199 250 2 215 181 165 207 235 199 173 151 181 199 184 187
237 262 248 215 189 233 243 240 249 238 208 177 169 171 175 181 172 171 163 164 163 159 181 169 164 170 168 179 176 167 169 172 169 164 160 162 170 172 170 149 163 164 173 169 167 179 196 174 177 177 184 179 168 178 180 165 153 159 162 162 177 212 188 206 206 207 200 163 195 174 174 138 170 168 138 29 274 245 227 192 192 205 199 201 184 188 178
259 241 262 214 172 224 267 288 257 207 190 179 189 181 175 173 175 178 170 172 171 190 188 199 170 165 170 169 165 172 171 167 161 163 164 164 170 174 175 168 175 174 173 166 170 187 191 177 178 178 178 176 175 183 179 164 165 161 177 160 176 206 190 187 186 194 188 180 185 159 262 90 135 141 144 173 262 274 223 219 229 206 208 214 213 211 216
243 244 230 253 240 272 254 235 214 227 188 175 173 176 178 175 180 179 177 183 178 165 178 170 183 172 162 164 168 169 166 176 173 166 172 171 171 167 178 177 173 176 179 180 186 192 195 179 166 175 179 185 183 180 177 176 166 168 178 166 171 172 164 162 169 177 182 172 184 164 236 188 157 154 135 150 175 242 297 249 208 225 247 244 238 236 234
224 264 261 231 283 280 302 303 136 202 243 196 172 182 180 178 180 177 178 172 184 180 168 156 161 181 162 166 176 178 164 172 187 175 169 173 174 173 174 185 188 184 183 186 191 192 195 200 174 166 186 189 187 182 183 178 173 171 178 179 176 164 166 170 165 179 178 160 164 191 197 183 184 163 166 158 177 182 213 303 336 294 231 230 235 245 250
223 222 346 337 333 309 280 202 241 220 199 219 186 185 181 176 174 177 178 176 176 179 173 172 168 171 169 172 176 174 175 178 169 177 177 175 178 185 189 189 183 185 188 190 197 200 199 198 202 180 186 193 183 184 185 179 170 171 178 180 175 177 177 169 170 180 184 179 184 183 148 154 190 153 167 176 166 173 178 196 232 252 282 296 264 217 231
243 231 192 227 255 269 276 263 247 240 192 190 208 198 189 156 148 151 155 172 183 192 186 167 154 162 172 173 161 180 165 157 177 186 181 188 192 192 190 187 185 187 189 193 199 201 198 200 202 208 209 190 180 183 183 170 169 175 181 181 178 181 192 194 188 177 176 184 189 167 175 186 191 175 171 166 174 196 190 177 208 258 288 260 258 275 242
272 266 230 205 227 243 259 278 273 256 237 212 185 181 137 138 169 169 174 178 185 182 179 197 185 172 171 174 166 167 176 179 178 185 192 195 193 193 193 188 187 188 189 197 202 197 196 196 202 205 221 180 178 178 178 171 173 176 179 180 180 187 194 202 195 186 187 176 175 182 175 172 178 178 183 191 189 185 190 213 234 244 243 274 301 303 283
257 258 259 249 242 252 277 285 254 217 210 190 167 183 185 163 166 185 184 187 175 182 197 178 175 191 173 167 178 171 174 182 188 190 192 193 195 194 190 188 179 186 191 201 205 199 195 198 198 202 214 183 177 177 175 174 180 180 183 181 184 188 198 198 190 188 179 182 193 175 172 184 199 184 192 195 199 199 214 231 240 240 256 257 245 249 271
257 254 253 261 264 265 245 253 242 217 196 183 180 180 198 187 181 184 192 186 183 189 184 175 184 182 179 178 184 185 184 185 186 187 192 194 196 196 190 169 170 193 201 209 207 199 198 199 199 207 212 187 166 177 174 178 182 183 180 183 192 197 192 183 181 184 187 187 185 176 199 201 203 190 204 211 223 230 233 238 241 242 242 250 254 243 237
263 268 268 267 259 256 251 245 247 254 241 202 175 183 184 186 200 203 201 183 188 187 181 183 181 186 189 186 182 185 187 187 187 190 194 196 199 201 194 188 195 198 204 206 197 191 195 195 204 215 203 184 167 174 175 179 178 176 185 187 189 193 197 186 179 187 178 182 180 182 184 182 196 192 196 206 218 224 226 225 240 243 244 245 246 243 243
250 270 276 271 270 255 241 233 222 236 234 221 203 196 190 192 193 198 198 193 190 189 179 185 190 191 187 181 180 183 188 189 190 192 193 199 204 205 202 200 202 203 207 209 199 190 187 193 209 209 196 184 166 175 177 176 175 182 186 182 186 186 184 190 187 178 183 178 183 195 195 195 196 188 202 210 216 217 219 225 238 244 247 238 240 250 248
230 236 241 241 229 236 235 239 220 223 226 220 213 202 190 184 190 196 200 198 192 187 189 193 193 190 184 181 183 187 184 174 185 204 208 206 206 208 205 201 204 204 211 210 203 192 196 204 206 196 192 184 169 172 176 173 178 180 180 180 184 185 186 196 189 176 181 192 202 201 199 201 202 206 215 220 219 219 224 234 235 238 242 249 250 253 260
227 238 237 240 241 236 229 229 227 219 216 219 229 222 210 197 181 189 193 190 199 203 199 193 191 188 185 186 186 185 178 186 196 200 206 204 208 209 204 199 205 211 221 223 205 204 201 202 198 192 188 184 170 170 173 176 176 178 181 183 183 185 189 183 179 183 189 202 200 197 207 208 221 222 222 218 221 223 232 236 236 236 239 252 261 262 263
233 240 243 245 245 242 236 228 221 214 210 214 214 210 208 207 199 187 184 198 204 204 196 193 190 184 186 187 190 188 191 198 201 202 204 205 208 203 186 190 194 202 211 227 223 210 196 195 192 184 181 178 173 174 174 176 178 179 182 179 179 185 187 185 190 192 201 197 195 204 204 211 216 220 219 220 228 229 228 239 242 239 237 246 249 261 283
234 235 241 242 241 235 234 230 223 214 216 217 219 218 215 209 205 206 195 196 197 200 199 193 183 182 193 196 196 195 196 198 201 202 204 205 195 180 187 192 191 197 195 209 219 198 186 182 188 181 175 169 173 175 182 174 174 178 172 175 174 179 183 188 191 191 203 203 200 204 214 215 225 236 228 222 231 236 231 237 247 247 243 247 268 264 268
239 232 234 236 238 236 234 232 221 215 213 221 221 215 207 206 206 203 196 192 195 197 198 193 193 195 196 196 197 198 203 205 205 205 204 193 176 178 184 183 194 186 192 210 187 168 185 182 176 172 168 167 174 176 177 179 173 169 173 177 178 180 181 184 186 194 197 200 204 205 206 210 218 231 235 228 230 236 237 237 239 246 257 250 235 225 224
251 244 235 235 236 234 233 231 217 210 202 206 213 215 214 205 203 199 204 203 200 191 188 197 200 198 197 194 201 208 210 208 205 203 200 190 177 174 189 193 194 191 199 180 155 175 174 168 164 169 168 174 176 180 178 183 174 174 179 179 178 182 183 183 186 192 197 199 195 205 212 217 221 226 238 237 234 236 240 238 230 221 222 219 166 151 161
246 245 237 228 228 228 226 228 220 212 208 205 202 208 210 205 206 199 205 212 212 185 189 192 190 197 202 201 202 207 211 208 205 200 198 187 178 189 198 213 210 201 182 158 166 168 172 167 166 174 177 177 170 173 175 182 184 181 179 182 184 185 187 187 188 190 201 196 206 209 215 219 221 226 232 239 239 227 214 205 201 174 154 144 143 152 133
238 240 239 227 223 219 217 219 222 220 213 212 212 214 203 197 196 193 198 205 214 197 193 186 187 198 199 199 201 205 205 201 195 199 191 169 177 183 182 201 208 197 181 176 172 169 167 169 172 172 180 173 178 172 179 187 184 182 181 184 186 186 185 188 193 197 197 200 204 206 212 219 225 231 233 226 212 192 170 155 154 150 144 149 154 126 106
242 236 234 225 218 216 214 214 215 221 225 218 213 209 207 199 188 194 200 199 202 196 196 197 192 193 198 199 200 201 202 195 192 190 175 176 182 181 187 210 192 185 186 177 165 159 168 177 178 176 172 180 179 186 176 170 183 184 185 188 189 187 190 196 202 209 206 203 202 210 214 216 214 216 197 176 155 153 158 152 142 145 143 133 127 125 121
255 241 224 215 210 206 203 201 202 209 216 218 212 211 207 202 200 200 197 198 199 200 199 203 208 208 198 190 187 191 197 189 185 183 188 198 187 178 184 203 187 186 173 169 163 163 173 185 183 190 180 177 187 187 172 168 183 186 192 191 191 192 197 199 204 204 196 197 204 208 209 210 199 177 151 153 161 163 152 148 141 139 131 124 120 123 129
247 231 213 201 202 199 192 193 202 203 211 228 218 209 205 202 198 193 190 193 198 197 193 198 197 199 198 186 178 187 193 184 184 180 181 198 228 273 266 181 164 170 169 170 171 175 179 184 188 188 185 187 185 171 174 182 184 189 192 192 195 197 201 205 206 198 193 191 189 195 192 176 157 158 153 148 150 153 141 131 130 131 128 128 131 136 141
231 213 204 200 197 187 190 192 194 204 210 209 208 207 206 204 203 197 187 186 188 192 186 180 181 183 180 175 182 189 188 185 180 170 172 182 189 212 206 178 171 162 180 178 179 180 185 186 193 185 185 192 185 174 181 181 185 188 193 194 198 199 203 202 202 195 185 182 182 173 161 159 155 150 145 147 144 140 141 137 137 137 132 137 138 121 106
227 231 221 202 194 196 198 199 208 202 199 199 206 216 209 202 199 199 195 189 191 193 191 185 179 179 172 177 182 180 181 186 187 184 183 178 184 197 182 172 178 179 183 183 178 183 192 195 189 186 189 193 188 181 189 188 186 184 188 194 197 197 198 197 187 182 177 170 162 156 150 141 138 140 143 144 143 134 132 123 120 117 117 112 105 103 97
217 217 221 221 219 211 201 205 201 192 192 184 198 220 223 209 204 199 201 196 193 194 192 188 185 183 175 166 158 145 157 188 228 233 222 215 194 173 165 175 180 182 174 178 183 188 192 194 193 193 193 194 184 186 191 189 188 187 190 196 195 194 187 181 174 168 160 158 151 144 139 140 138 138 133 129 128 128 130 121 115 114 114 108 104 99 96
211 212 217 214 219 222 210 197 176 191 195 200 205 212 211 200 199 203 198 193 193 186 181 182 181 174 174 171 171 169 165 164 190 234 213 190 170 151 156 165 177 176 177 185 187 195 190 186 188 190 193 185 183 192 190 189 185 190 193 194 186 181 172 166 158 156 152 148 144 143 141 139 136 134 132 131 130 131 128 125 125 121 111 108 105 104 105
207 211 215 212 215 213 203 199 198 201 209 211 204 214 200 189 192 189 189 184 178 176 178 180 182 183 184 181 175 179 183 174 171 200 193 166 160 166 177 176 177 175 177 181 188 198 196 194 189 189 183 177 184 187 181 178 183 185 187 182 179 174 170 165 162 158 153 155 153 149 145 143 142 139 134 132 128 128 123 119 118 119 119 113 108 103 101
223 205 204 205 211 215 213 207 208 209 212 203 207 208 187 162 171 202 192 185 183 179 176 179 188 191 185 181 182 178 177 189 194 163 147 157 158 161 166 168 172 179 180 183 190 194 194 191 190 183 177 186 189 182 178 177 178 176 171 168 165 166 166 156 154 151 148 144 145 142 140 137 135 130 127 124 123 118 113 111 111 110 110 107 109 107 105
198 190 205 202 201 207 202 201 211 209 204 200 203 191 168 176 191 193 190 188 176 171 182 190 192 188 184 182 172 175 179 176 169 158 152 156 158 165 169 168 168 175 183 183 186 187 173 174 182 183 190 191 184 178 178 175 169 164 164 165 164 154 151 153 156 154 152 146 140 136 134 132 131 127 125 122 119 113 112 109 108 105 104 106 106 105 104
216 214 219 211 208 207 205 209 210 207 210 207 195 174 180 187 186 193 197 189 177 179 180 169 199 214 187 176 172 175 180 172 159 160 155 153 159 168 175 167 164 175 178 185 188 180 174 178 177 183 184 180 176 171 165 158 157 162 164 158 155 155 154 152 146 137 136 134 132 129 127 126 124 119 116 115 111 111 109 109 107 106 104 104 103 104 103